| time (UTC) | temp F | wind direction | speed knots | gust knots | rain 1hr in | rain 24hr in | rain mn in | humidity % | barometer mb |
| 20260503193049 | 62 | 254 | 6.1 | 17.4 | 0.00 | 0.00 | 0.00 | 39 | 1009.6 |
| 20260503191550 | 62 | 271 | 8.7 | 18.2 | 0.00 | 0.00 | 0.00 | 38 | 1009.8 |
| 20260503190051 | 61 | 237 | 9.6 | 15.6 | 0.00 | 0.00 | 0.00 | 36 | 1009.9 |
| 20260503184600 | 60 | 239 | 7.0 | 17.4 | 0.00 | 0.00 | 0.00 | 38 | 1010.0 |
| 20260503183059 | 61 | 278 | 6.1 | 13.0 | 0.00 | 0.00 | 0.00 | 41 | 1010.2 |
| 20260503181606 | 60 | 355 | 7.0 | 18.2 | 0.00 | 0.00 | 0.00 | 39 | 1010.5 |
| 20260503180047 | 58 | 253 | 4.3 | 15.6 | 0.00 | 0.00 | 0.00 | 42 | 1010.7 |
| 20260503174546 | 58 | 275 | 7.8 | 16.5 | 0.00 | 0.00 | 0.00 | 41 | 1010.8 |
| 20260503173058 | 59 | 250 | 6.1 | 14.8 | 0.00 | 0.00 | 0.00 | 40 | 1011.1 |
| 20260503171547 | 58 | 237 | 5.2 | 13.9 | 0.00 | 0.00 | 0.00 | 44 | 1011.2 |
| 20260503081610 | 35 | 240 | 0.0 | 1.7 | 0.00 | 0.00 | 0.00 | 66 | 1013.8 |
| 20260503080110 | 35 | 254 | 0.0 | 1.7 | 0.00 | 0.00 | 0.00 | 67 | 1013.8 |
| 20260503071551 | 35 | 0 | 0.0 | 2.6 | 0.00 | 0.00 | 0.00 | 69 | 1014.0 |
| 20260503054555 | 37 | 0 | 0.0 | 1.7 | 0.00 | 0.00 | 0.00 | 65 | 1014.6 |
| 20260503053048 | 36 | 259 | 0.0 | 1.7 | 0.00 | 0.00 | 0.00 | 66 | 1014.7 |
| 20260503051553 | 37 | 229 | 0.0 | 2.6 | 0.00 | 0.00 | 0.00 | 66 | 1014.8 |
| 20260503050053 | 37 | 0 | 0.0 | 2.6 | 0.00 | 0.00 | 0.00 | 66 | 1014.9 |
| 20260503044550 | 37 | 251 | 0.9 | 2.6 | 0.00 | 0.00 | 0.00 | 67 | 1014.9 |
| 20260503043045 | 36 | 234 | 0.0 | 1.7 | 0.00 | 0.00 | 0.00 | 69 | 1014.9 |
| 20260503041550 | 35 | 0 | 0.0 | 0.9 | 0.00 | 0.00 | 0.00 | 70 | 1014.9 |
| 20260503040049 | 35 | 0 | 0.0 | 0.9 | 0.00 | 0.00 | 0.00 | 72 | 1015.0 |
| 20260503034550 | 35 | 0 | 0.0 | 0.0 | 0.00 | 0.00 | 0.00 | 72 | 1015.1 |
| 20260503033103 | 35 | 211 | 0.0 | 0.0 | 0.00 | 0.00 | 0.00 | 72 | 1015.1 |
| 20260503031554 | 35 | 0 | 0.0 | 0.9 | 0.00 | 0.00 | 0.00 | 73 | 1015.3 |
| 20260503030052 | 35 | 0 | 0.0 | 0.9 | 0.00 | 0.00 | 0.00 | 73 | 1015.4 |
| 20260503024607 | 35 | 0 | 0.0 | 0.0 | 0.00 | 0.00 | 0.00 | 72 | 1015.4 |
| 20260503023046 | 35 | 0 | 0.0 | 0.0 | 0.00 | 0.00 | 0.00 | 72 | 1015.5 |
| 20260503021544 | 35 | 0 | 0.0 | 0.0 | 0.00 | 0.00 | 0.00 | 71 | 1015.6 |
| 20260503020048 | 35 | 0 | 0.0 | 0.0 | 0.00 | 0.00 | 0.00 | 70 | 1015.5 |
| 20260503014543 | 36 | 0 | 0.0 | 0.0 | 0.00 | 0.00 | 0.00 | 67 | 1015.5 |
| 20260503013046 | 37 | 0 | 0.0 | 0.0 | 0.00 | 0.00 | 0.00 | 64 | 1015.3 |
| 20260503011553 | 38 | 0 | 0.0 | 0.0 | 0.00 | 0.00 | 0.00 | 63 | 1015.2 |
| 20260503010048 | 40 | 0 | 0.0 | 0.0 | 0.00 | 0.00 | 0.00 | 58 | 1015.2 |
| 20260503004611 | 42 | 0 | 0.0 | 0.9 | 0.00 | 0.00 | 0.00 | 55 | 1015.2 |
| 20260503003045 | 43 | 0 | 0.0 | 0.9 | 0.00 | 0.00 | 0.00 | 52 | 1015.2 |
| 20260503001550 | 45 | 0 | 0.0 | 0.9 | 0.00 | 0.00 | 0.00 | 51 | 1015.1 |
| 20260503000105 | 45 | 0 | 0.0 | 2.6 | 0.00 | 0.00 | 0.00 | 50 | 1015.2 |
| 20260502234606 | 46 | 247 | 0.9 | 3.5 | 0.00 | 0.00 | 0.00 | 48 | 1015.2 |
| 20260502233102 | 47 | 294 | 1.7 | 2.6 | 0.00 | 0.00 | 0.00 | 44 | 1015.3 |
| 20260502231600 | 46 | 311 | 0.9 | 3.5 | 0.00 | 0.00 | 0.00 | 50 | 1015.3 |
| 20260502230045 | 46 | 242 | 2.6 | 5.2 | 0.00 | 0.00 | 0.00 | 48 | 1015.4 |
| 20260502224546 | 46 | 239 | 1.7 | 5.2 | 0.00 | 0.00 | 0.00 | 48 | 1015.5 |
| 20260502223051 | 46 | 294 | 1.7 | 7.0 | 0.00 | 0.00 | 0.00 | 46 | 1015.4 |
| 20260502221559 | 46 | 239 | 3.5 | 9.6 | 0.00 | 0.00 | 0.00 | 48 | 1015.5 |
| 20260502220049 | 47 | 248 | 3.5 | 9.6 | 0.00 | 0.00 | 0.00 | 46 | 1015.5 |
| 20260502214550 | 47 | 278 | 0.9 | 8.7 | 0.00 | 0.00 | 0.00 | 48 | 1015.4 |
| 20260502213051 | 46 | 256 | 4.3 | 8.7 | 0.00 | 0.00 | 0.00 | 47 | 1015.4 |
| 20260502211549 | 47 | 226 | 4.3 | 8.7 | 0.00 | 0.00 | 0.00 | 47 | 1015.6 |
| 20260502210047 | 46 | 261 | 5.2 | 10.4 | 0.00 | 0.00 | 0.00 | 46 | 1015.6 |
| 20260502204551 | 47 | 255 | 4.3 | 8.7 | 0.00 | 0.00 | 0.00 | 46 | 1015.6 |
| 20260502203055 | 46 | 244 | 3.5 | 10.4 | 0.00 | 0.00 | 0.00 | 47 | 1015.7 |
| 20260502201549 | 46 | 303 | 2.6 | 7.0 | 0.00 | 0.00 | 0.00 | 48 | 1015.8 |
| 20260502200047 | 45 | 278 | 2.6 | 7.8 | 0.00 | 0.00 | 0.00 | 47 | 1016.0 |
| 20260502194540 | 46 | 236 | 2.6 | 5.2 | 0.00 | 0.00 | 0.00 | 46 | 1016.1 |